• In Portugal
  • List of Countries
  • For 7 days
  • Water Temperature
  • Satellite Maps
  • Weather Map
  • Weather Widgets
  • user-avatar
    Login

    Hourly Weather Canillo

    Today, 23 February, Friday

    Time Temperature Precipitation Wind Pressure Humidity
    00:00 -10°C° 0 mm 2 mps 607 mmHg 78%
    01:00 -12°C° 0 mm 2 mps 607 mmHg 78%
    02:00 -12°C° 0 mm 2 mps 607 mmHg 78%
    03:00 -12°C° 0 mm 2 mps 606 mmHg 77%
    04:00 -12°C° 0 mm 2 mps 606 mmHg 77%
    05:00 -12°C° 0 mm 2 mps 606 mmHg 77%
    06:00 -13°C° 0 mm 2 mps 606 mmHg 76%
    07:00 -10°C° 0 mm 2 mps 607 mmHg 71%
    08:00 -8°C° 0 mm 2 mps 607 mmHg 65%
    09:00 -7°C° 0 mm 2 mps 608 mmHg 60%
    10:00 -5°C° 0 mm 2 mps 609 mmHg 57%
    11:00 -4°C° 0 mm 2 mps 609 mmHg 54%
    12:00 -1°C° 0 mm 1 mps 610 mmHg 51%
    13:00 -1°C° 0 mm 1 mps 609 mmHg 52%
    14:00 -1°C° 0 mm 1 mps 609 mmHg 54%
    15:00 -1°C° 0 mm 1 mps 609 mmHg 56%
    16:00 -2°C° 0 mm 1 mps 608 mmHg 64%
    17:00 -4°C° 0 mm 1 mps 608 mmHg 73%
    18:00 -7°C° 0 mm 0 mps 607 mmHg 82%
    19:00 -8°C° 0 mm 0 mps 607 mmHg 82%
    20:00 -8°C° 0 mm 0 mps 607 mmHg 82%
    21:00 -9°C° 0 mm 1 mps 607 mmHg 83%
    22:00 -9°C° 0 mm 1 mps 607 mmHg 82%
    23:00 -9°C° 0 mm 1 mps 607 mmHg 81%

    Tomorrow, 24 February, Saturday

    Time Temperature Precipitation Wind Pressure Humidity
    00:00 -9°C° 0 mm 0 mps 607 mmHg 79%
    01:00 -9°C° 0 mm 1 mps 607 mmHg 78%
    02:00 -9°C° 0 mm 1 mps 607 mmHg 77%
    03:00 -9°C° 0 mm 1 mps 607 mmHg 76%
    04:00 -9°C° 0 mm 1 mps 607 mmHg 75%
    05:00 -9°C° 0 mm 1 mps 607 mmHg 73%
    06:00 -9°C° 0 mm 1 mps 607 mmHg 72%
    07:00 -7°C° 0 mm 1 mps 608 mmHg 66%
    08:00 -3°C° 0 mm 1 mps 609 mmHg 60%
    09:00 -2°C° 0 mm 0 mps 610 mmHg 54%
    10:00 0°C° 0 mm 1 mps 611 mmHg 52%
    11:00 +1°C° 0 mm 1 mps 611 mmHg 50%
    12:00 +2°C° 0 mm 1 mps 611 mmHg 47%
    13:00 +2°C° 0 mm 1 mps 611 mmHg 50%
    14:00 +1°C° 0 mm 1 mps 611 mmHg 53%
    15:00 +1°C° 0 mm 1 mps 611 mmHg 56%
    16:00 0°C° 0.1 mm 1 mps 610 mmHg 63%
    17:00 -2°C° 0.1 mm 1 mps 610 mmHg 71%
    18:00 -4°C° 0.1 mm 0 mps 610 mmHg 79%
    19:00 -4°C° 0.1 mm 1 mps 610 mmHg 80%
    20:00 -4°C° 0.1 mm 1 mps 610 mmHg 81%
    21:00 -4°C° 0.1 mm 1 mps 610 mmHg 82%
    22:00 -4°C° 0 mm 1 mps 610 mmHg 81%
    23:00 -6°C° 0 mm 1 mps 610 mmHg 80%

    Day after tomorrow, 25 February, Sunday

    Time Temperature Precipitation Wind Pressure Humidity
    00:00 -6°C° 0 mm 1 mps 610 mmHg 78%
    01:00 -6°C° 0 mm 1 mps 610 mmHg 77%
    02:00 -6°C° 0 mm 1 mps 610 mmHg 76%
    03:00 -6°C° 0 mm 1 mps 610 mmHg 75%
    04:00 -6°C° 0 mm 1 mps 610 mmHg 74%
    05:00 -6°C° 0 mm 1 mps 610 mmHg 73%
    06:00 -6°C° 0 mm 1 mps 610 mmHg 73%
    07:00 -4°C° 0 mm 1 mps 611 mmHg 68%
    08:00 -2°C° 0 mm 1 mps 611 mmHg 63%
    09:00 0°C° 0 mm 1 mps 612 mmHg 58%
    10:00 +1°C° 0 mm 1 mps 613 mmHg 58%
    11:00 +2°C° 0 mm 1 mps 613 mmHg 57%
    12:00 +3°C° 0 mm 2 mps 613 mmHg 57%
    13:00 +3°C° 0 mm 2 mps 613 mmHg 58%
    14:00 +2°C° 0 mm 2 mps 613 mmHg 60%
    15:00 +2°C° 0 mm 2 mps 612 mmHg 61%
    16:00 -1°C° 0 mm 2 mps 612 mmHg 69%
    17:00 -3°C° 0 mm 2 mps 611 mmHg 77%
    18:00 -3°C° 0 mm 1 mps 610 mmHg 84%
    19:00 -5°C° 0 mm 2 mps 610 mmHg 85%
    20:00 -6°C° 0 mm 2 mps 611 mmHg 86%
    21:00 -6°C° 0 mm 2 mps 611 mmHg 86%
    22:00 -6°C° 0 mm 2 mps 611 mmHg 83%
    23:00 -7°C° 0 mm 2 mps 610 mmHg 80%

    26 February, Monday

    Time Temperature Precipitation Wind Pressure Humidity
    00:00 -7°C° 0 mm 2 mps 610 mmHg 77%
    01:00 -7°C° 0 mm 2 mps 610 mmHg 76%
    02:00 -7°C° 0 mm 2 mps 610 mmHg 76%
    03:00 -8°C° 0 mm 2 mps 610 mmHg 75%
    04:00 -8°C° 0 mm 2 mps 610 mmHg 74%
    05:00 -8°C° 0 mm 2 mps 609 mmHg 74%
    06:00 -8°C° 0 mm 2 mps 609 mmHg 73%
    07:00 -6°C° 0 mm 2 mps 610 mmHg 69%
    08:00 -5°C° 0 mm 2 mps 611 mmHg 65%
    09:00 -3°C° 0 mm 2 mps 612 mmHg 61%
    10:00 -2°C° 0 mm 2 mps 612 mmHg 58%
    11:00 -1°C° 0 mm 2 mps 612 mmHg 56%
    12:00 +1°C° 0 mm 2 mps 612 mmHg 53%
    13:00 -1°C° 0 mm 2 mps 612 mmHg 55%
    14:00 -1°C° 0 mm 2 mps 611 mmHg 57%
    15:00 -1°C° 0 mm 2 mps 610 mmHg 59%
    16:00 -3°C° 0.1 mm 2 mps 610 mmHg 66%
    17:00 -5°C° 0.1 mm 2 mps 609 mmHg 72%
    18:00 -7°C° 0.1 mm 2 mps 609 mmHg 79%
    19:00 -7°C° 0.1 mm 1 mps 609 mmHg 78%
    20:00 -7°C° 0.1 mm 1 mps 609 mmHg 78%
    21:00 -8°C° 0.1 mm 1 mps 609 mmHg 77%
    22:00 -8°C° 0.1 mm 1 mps 608 mmHg 76%
    23:00 -8°C° 0.1 mm 1 mps 608 mmHg 75%

    27 February, Tuesday

    Time Temperature Precipitation Wind Pressure Humidity
    00:00 -8°C° 0.1 mm 1 mps 608 mmHg 74%
    01:00 -8°C° 0.1 mm 1 mps 608 mmHg 73%
    02:00 -9°C° 0.1 mm 1 mps 608 mmHg 73%
    03:00 -9°C° 0.1 mm 1 mps 607 mmHg 73%
    04:00 -9°C° 0.1 mm 1 mps 607 mmHg 72%
    05:00 -9°C° 0.1 mm 1 mps 607 mmHg 72%
    06:00 -9°C° 0.1 mm 1 mps 607 mmHg 71%
    07:00 -9°C° 0.1 mm 1 mps 608 mmHg 67%
    08:00 -8°C° 0.1 mm 1 mps 608 mmHg 63%
    09:00 -7°C° 0.1 mm 1 mps 609 mmHg 59%
    10:00 -6°C° 0.1 mm 1 mps 609 mmHg 58%
    11:00 -4°C° 0.1 mm 1 mps 609 mmHg 57%
    12:00 -5°C° 0.1 mm 2 mps 610 mmHg 56%
    13:00 -6°C° 0.2 mm 2 mps 609 mmHg 57%
    14:00 -6°C° 0.2 mm 2 mps 609 mmHg 58%
    15:00 -6°C° 0.2 mm 2 mps 609 mmHg 59%
    16:00 -6°C° 0.2 mm 1 mps 608 mmHg 63%
    17:00 -7°C° 0.2 mm 1 mps 608 mmHg 67%
    18:00 -8°C° 0.2 mm 1 mps 608 mmHg 71%
    19:00 -8°C° 0.1 mm 1 mps 608 mmHg 72%
    20:00 -8°C° 0.1 mm 1 mps 608 mmHg 74%
    21:00 -8°C° 0.1 mm 1 mps 608 mmHg 75%
    22:00 -9°C° 0 mm 1 mps 608 mmHg 75%
    23:00 -9°C° 0 mm 1 mps 608 mmHg 75%

    28 February, Wednesday

    Time Temperature Precipitation Wind Pressure Humidity
    00:00 -9°C° 0 mm 1 mps 608 mmHg 76%
    01:00 -9°C° 0.1 mm 1 mps 608 mmHg 76%
    02:00 -9°C° 0.1 mm 1 mps 607 mmHg 75%
    03:00 -9°C° 0.1 mm 1 mps 607 mmHg 75%
    04:00 -9°C° 0.2 mm 1 mps 607 mmHg 77%
    05:00 -8°C° 0.2 mm 1 mps 607 mmHg 79%
    06:00 -9°C° 0.2 mm 2 mps 606 mmHg 80%
    07:00 -8°C° 0.2 mm 2 mps 607 mmHg 79%
    08:00 -7°C° 0.2 mm 2 mps 607 mmHg 78%
    09:00 -7°C° 0.2 mm 3 mps 607 mmHg 78%
    10:00 -6°C° 0.3 mm 3 mps 607 mmHg 78%
    11:00 -7°C° 0.3 mm 4 mps 606 mmHg 78%
    12:00 -5°C° 0.3 mm 4 mps 606 mmHg 78%
    13:00 -5°C° 0.7 mm 4 mps 605 mmHg 80%
    14:00 -5°C° 0.7 mm 4 mps 604 mmHg 82%
    15:00 -5°C° 0.7 mm 4 mps 603 mmHg 84%
    16:00 -5°C° 0.6 mm 4 mps 603 mmHg 86%
    17:00 -5°C° 0.6 mm 4 mps 602 mmHg 88%
    18:00 -5°C° 0.6 mm 4 mps 601 mmHg 90%
    19:00 -5°C° 0.8 mm 4 mps 601 mmHg 90%
    20:00 -4°C° 0.8 mm 3 mps 600 mmHg 91%
    21:00 -4°C° 0.8 mm 3 mps 600 mmHg 92%
    22:00 -4°C° 0.5 mm 3 mps 600 mmHg 92%
    23:00 -4°C° 0.5 mm 3 mps 599 mmHg 92%
    Show more